Location: Palomar Observatory
(33.3560°N, 116.8630°W)
Time: 06:35:28
(UTC-07:00)

Iridium 57 - Visible Passes

Search period start: 18 April 2014 00:00
Search period end: 28 April 2014 00:00
Orbit: 776 x 779 km, 86.4° (Epoch: 17 April)

Date Brightness Start Highest point End Pass type
(mag) Time Alt. Az. Time Alt. Az. Time Alt. Az.
18 Apr 8.2 02:40:32 10° NNW 02:40:48 11° NNW 02:40:48 11° NNW visible
19 Apr 8.2 02:06:45 10° N 02:07:20 13° N 02:07:20 13° N visible
20 Apr 8.4 01:33:23 10° N 01:33:53 13° NNE 01:33:53 13° NNE visible
22 Apr 8.2 02:06:57 10° NNW 02:07:27 13° NNW 02:07:27 13° NNW visible
23 Apr 8.3 01:33:20 10° N 01:34:00 14° N 01:34:00 14° N visible
24 Apr 8.4 01:00:07 10° NNE 01:00:34 12° NNE 01:00:34 12° NNE visible
25 Apr 8.2 02:07:17 10° NNW 02:07:36 12° NNW 02:07:36 12° NNW visible
26 Apr 8.2 01:33:24 10° N 01:34:10 14° N 01:34:10 14° N visible
27 Apr 8.2 00:59:56 10° N 01:00:44 14° N 01:00:44 14° N visible
